Location: Newark
(22.6667°N, 131.7500°E)
Time: 11:17:52
(UTC+00:00)

Hubble Space Telescope - Visible Passes

Search period start: 25 September 2020 00:00
Search period end: 05 October 2020 00:00
Orbit: 536 x 540 km, 28.5° (Epoch: 24 September)

Date Brightness Start Highest point End Pass type
(mag) Time Alt. Az. Time Alt. Az. Time Alt. Az.
25 Sep 2.6 18:57:47 30° E 18:57:47 30° E 18:59:59 10° ENE visible
25 Sep 1.4 20:33:14 10° W 20:37:10 44° N 20:41:07 10° ENE visible
26 Sep 3.2 18:47:47 22° ENE 18:47:47 22° ENE 18:49:17 10° ENE visible
26 Sep 1.6 20:23:07 13° WNW 20:26:32 40° N 20:30:24 10° ENE visible
27 Sep 3.7 18:37:45 15° ENE 18:37:45 15° ENE 18:38:34 10° ENE visible
27 Sep 1.7 20:13:04 16° WNW 20:15:53 37° N 20:19:43 10° ENE visible
28 Sep 4.1 18:27:41 11° ENE 18:27:41 11° ENE 18:27:51 10° ENE visible
28 Sep 1.8 20:03:01 20° WNW 20:05:15 35° N 20:09:03 10° ENE visible
29 Sep 1.8 19:52:58 25° NW 19:54:37 35° N 19:58:25 10° ENE visible
30 Sep 1.8 19:42:54 30° NNW 19:43:59 36° N 19:47:48 10° ENE visible
01 Oct 1.7 19:32:52 36° NNW 19:33:21 37° N 19:37:11 10° ENE visible
02 Oct 1.7 19:22:51 40° NNE 19:22:51 40° NNE 19:26:36 10° ENE visible
03 Oct 2.0 19:12:53 38° NE 19:12:53 38° NE 19:16:00 10° E visible
04 Oct 2.5 19:02:58 31° ENE 19:02:58 31° ENE 19:05:24 10° E visible
04 Oct 1.1 20:38:35 10° W 20:42:36 53° SSW 20:46:37 10° SE visible
